Flag for Germany Weather past 2 weeks in Fürstenfeldbruck, Bavaria, Germany

Now
64 °F

Sunny.


Feels Like: 64 °F
Forecast: 60 / 72 °F
Wind: 7 mph from Southwest

Location: Oberpfaffenhofen

Current Time: Jul 26, 2014 at 9:48:58 AM

Latest Report: Jul 26, 2014 at 9:20 AM


Visibility: 10 mi

Pressure: 29.92 "Hg

Humidity: 78%

Dew point: 57 °F

Location of FürstenfeldbruckLocation

Historic Weather in Fürstenfeldbruck — Graph

°F

Fürstenfeldbruck temperature yesterday

Maximum temperature yesterday: 79 °F (at 3:50 PM)
Minimum temperature yesterday: 55 °F (at 6:50 AM)
Average temperature yesterday: 72 °F

Past Weeks' High & Low Weather Summary

 TemperatureHumidityPressure
High90 °F (Jul 19, 5:50 PM)100% (Jul 16, 6:50 AM)30.24 "Hg (Jul 16, 6:50 AM)
Low52 °F (Jul 24, 6:50 AM)21% (Jul 19, 5:20 PM)29.86 "Hg (Jul 22, 6:50 AM)
Average69 °F63%30.02 "Hg
* Reported Jul 11 8:20 AM — Jul 26 8:50 AM, Fürstenfeldbruck, Weather by CustomWeather, © 2014

Note: Actual official high and low records may vary slightly from our data, if they occured in-between our weather recording intervals... More about our weather records

Advertising

Fürstenfeldbruck weather history for previous 24 hours

 ConditionsComfort  
Time TempWeatherWind HumidityBarometerVisibility
8:50 AM
Jul 26
64 °FSunny.6 mph78%29.92 "Hg10 mi
6:50 PM
Jul 25
79 °FSunny.3 mph30%29.92 "Hg10 mi
6:20 PM79 °FSunny.3 mph30%29.92 "Hg10 mi
5:50 PM79 °FSunny.1 mph28%29.92 "Hg10 mi
5:20 PM79 °FSunny.2 mph30%29.92 "Hg10 mi
4:50 PM79 °FSunny.3 mph32%29.92 "Hg10 mi
4:20 PM79 °FPassing clouds.5 mph37%29.92 "HgN/A
3:50 PM79 °FSunny.5 mph37%29.95 "Hg10 mi
3:20 PM77 °FSunny.5 mph34%29.95 "Hg10 mi
2:20 PM77 °FPassing clouds.7 mph32%29.95 "HgN/A
1:50 PM77 °FSunny.3 mph34%29.95 "Hg10 mi
1:20 PM75 °FSunny.3 mph41%29.95 "Hg10 mi
12:50 PM75 °FPassing clouds.5 mph44%29.95 "HgN/A
12:20 PM73 °FPassing clouds.5 mph53%29.98 "HgN/A
11:50 AM73 °FSunny.5 mph53%29.98 "Hg10 mi
11:20 AM72 °FPassing clouds.5 mph53%29.98 "HgN/A
10:50 AM72 °FPassing clouds.7 mph57%29.98 "HgN/A
10:20 AM70 °FPassing clouds.8 mph57%29.98 "HgN/A
9:50 AM70 °FPassing clouds.5 mph60%29.98 "HgN/A
9:20 AM68 °FPassing clouds.6 mph60%29.98 "HgN/A
Weather by CustomWeather, © 2014

See weather overviewHow to use our weather pages